Flag for South Africa Weather past 2 weeks in Cape Town, South Africa

Now
52 °F

Passing clouds.


Feels Like: 49 °F
Forecast: 51 / 56 °F
Wind: 9 mph from Southwest

Location: Cape Town International Airport

Current Time: Jul 30, 2015 at 6:51:10 PM

Latest Report: Jul 30, 2015 at 6:00 PM


Visibility: N/A

Pressure: 30.15 "Hg

Humidity: 54%

Dew point: 36 °F

Location of Cape TownLocation

Historic Weather in Cape Town — Graph

°F

Cape Town temperature yesterday

Maximum temperature yesterday: 55 °F (at 12:00 PM)
Minimum temperature yesterday: 48 °F (at 3:00 AM)
Average temperature yesterday: 52 °F

Past Weeks' High & Low Weather Summary

 TemperatureHumidityPressure
High64 °F (Jul 22, 12:00 PM)100% (Jul 16, 2:00 AM)30.45 "Hg (Jul 16, 2:00 AM)
Low39 °F (Jul 26, 8:00 AM)42% (Jul 21, 2:00 PM)29.86 "Hg (Jul 17, 3:00 PM)
Average53 °F83%30.15 "Hg
* Reported Jul 15 5:00 PM — Jul 30 5:00 PM, Cape Town, Weather by CustomWeather, © 2015

Note: Actual official high and low records may vary slightly from our data, if they occured in-between our weather recording intervals... More about our weather records

Advertising

Cape Town weather history for previous 24 hours

 ConditionsComfort  
Time TempWeatherWind HumidityBarometerVisibility
5:00 PM
Thu, Jul 30
54 °FScattered clouds.14 mph58%30.12 "HgN/A
4:00 PM55 °FPartly sunny.14 mph63%30.09 "HgN/A
3:00 PM57 °FPartly sunny.15 mph59%30.07 "HgN/A
2:00 PM55 °FPartly sunny.15 mph72%30.07 "HgN/A
1:00 PM55 °FPartly sunny.15 mph72%30.07 "HgN/A
12:00 PM55 °FPartly sunny.14 mph77%30.07 "HgN/A
11:00 AM55 °FPartly sunny.13 mph77%30.07 "HgN/A
10:00 AM55 °FPartly sunny.9 mph77%30.04 "HgN/A
9:00 AM55 °FPartly sunny.7 mph94%30.01 "HgN/A
8:00 AM54 °FLight rain. Broken clouds.10 mph100%29.98 "HgN/A
7:00 AM54 °FLight rain. Partly sunny.22 mph94%29.95 "Hg4 mi
6:00 AM54 °FRain. Passing clouds.26 mph94%29.89 "Hg3 mi
5:00 AM52 °FPassing clouds.21 mph100%29.89 "Hg4 mi
4:00 AM52 °FPassing clouds.21 mph94%29.89 "Hg3 mi
3:00 AM52 °FRain. Passing clouds.20 mph100%29.92 "Hg3 mi
2:00 AM52 °FPassing clouds.18 mph100%29.92 "HgN/A
1:00 AM52 °FDrizzle. Overcast.23 mph94%29.95 "Hg3 mi
12:00 AM52 °FPassing clouds.20 mph94%29.98 "Hg5 mi
11:00 PM
Wed, Jul 29
52 °FLight rain. Passing clouds.17 mph88%29.98 "HgN/A
10:00 PM54 °FLight rain. Passing clouds.18 mph77%29.98 "HgN/A
9:00 PM54 °FMostly cloudy.17 mph77%30.01 "HgN/A
8:00 PM54 °FPartly cloudy.16 mph77%30.01 "HgN/A
7:00 PM54 °FPassing clouds.17 mph72%30.01 "HgN/A
6:00 PM55 °FPassing clouds.22 mph72%29.98 "HgN/A
Weather by CustomWeather, © 2015

See weather overviewHow to use our weather pages